Temp
31 30 28 30 31 33 34 33 30 28 27 25 25 24 27 27 28 27 29 30 30 31 31 30 31 30 28 27 28 27 27 27 26 27 26 28 28 27 27 27 27 27 27 27
30 30 32 33 34 34 34 34 32 29 28 27 25 26 27 28 27 26 24 29 31 31 30 30 30 28 27 27 28 27 27 27 27 27 27 28 29 28 27 27 27 27 27 27
29 31 34 34 33 33 33 33 31 32 28 27 26 26 27 28 28 25 25 29 31 31 30 30 29 28 27 27 28 27 27 27 27 27 27 27 28 27 27 27 27 27 27 27
30 32 33 33 33 33 30 35 35 34 31 29 28 26 27 28 26 25 25 26 32 32 31 30 29 28 27 26 28 27 27 27 27 27 27 27 26 27 28 28 27 27 27 27
30 31 31 32 33 34 33 35 35 33 31 31 29 29 29 29 27 27 26 27 32 32 31 30 29 29 28 27 26 27 26 27 27 27 27 28 28 28 28 27 27 27 27 27
30 32 32 32 35 35 36 34 34 34 31 30 31 29 31 29 30 31 29 32 33 33 32 31 31 30 29 27 26 27 26 26 27 27 27 27 28 28 27 27 27 27 27 27
29 30 32 34 32 34 34 31 29 29 28 27 30 31 29 33 33 31 29 34 34 33 32 31 30 30 29 27 27 26 26 25 26 27 26 26 28 28 27 27 27 27 27 27
26 27 30 33 32 32 31 31 29 28 28 28 31 31 30 34 33 30 31 34 35 34 33 32 31 30 30 28 27 26 26 25 26 26 26 26 27 27 27 27 28 28 28 27
26 27 32 33 34 33 32 31 32 30 29 29 31 34 32 34 30 30 30 27 34 34 34 32 32 31 30 28 27 27 25 25 26 26 26 26 26 27 27 27 28 28 27 28
27 26 29 33 33 33 32 33 31 30 28 28 31 31 31 32 33 31 29 32 34 33 34 34 32 31 30 30 28 27 26 25 25 26 26 26 26 26 27 27 28 29 28 28
28 26 28 30 31 31 32 31 32 30 28 27 28 28 30 31 35 33 31 33 31 32 32 34 33 32 31 30 29 28 25 25 25 25 26 25 26 26 27 27 27 28 28 27
29 27 25 28 31 33 33 31 30 29 28 28 27 30 34 35 35 33 34 34 31 31 31 32 34 32 31 30 30 29 26 25 25 25 25 25 26 26 26 27 27 27 28 27
24 24 24 26 27 31 31 33 31 31 31 28 28 29 32 32 32 32 32 32 29 30 29 29 30 32 31 31 30 30 26 26 25 25 25 25 25 25 26 27 27 26 27 27
25 25 25 23 26 29 31 31 33 30 29 29 29 31 32 32 33 33 32 31 29 27 27 27 27 27 31 30 30 29 28 26 26 25 25 25 25 25 25 25 26 26 26 27
25 24 25 26 28 29 30 31 33 31 30 29 30 29 28 30 32 31 31 29 27 27 26 25 25 25 27 29 29 30 29 27 26 26 25 26 26 25 25 25 25 26 26 26
25 23 26 25 28 29 30 31 31 33 32 31 31 26 28 29 28 27 27 27 26 25 25 24 24 24 24 25 25 29 30 29 27 26 26 26 26 26 25 25 25 25 26 26
24 24 23 23 26 28 27 30 30 31 27 28 26 25 27 24 24 23 24 23 23 23 23 22 22 22 22 23 24 25 28 30 28 26 26 26 26 26 26 26 25 25 26 26
22 24 23 22 24 25 28 26 26 23 24 25 24 23 23 22 22 22 22 22 22 21 21 20 20 20 21 22 23 24 25 27 28 27 26 26 26 26 26 25 25 25 25 25
23 22 22 22 22 28 25 23 24 23 20 22 20 21 22 22 21 20 22 22 21 20 20 19 19 19 20 21 21 21 22 25 27 28 28 27 26 26 26 25 25 25 25 25
23 22 21 21 22 24 21 21 23 23 19 21 20 21 20 21 19 19 20 20 20 20 19 18 18 18 19 18 18 19 20 22 25 28 29 29 28 26 26 26 25 25 25 26
21 21 20 20 21 21 21 23 23 21 19 20 20 20 20 19 18 20 20 20 20 19 18 17 17 16 17 16 16 17 18 19 19 23 27 29 29 28 27 26 26 25 25 25
20 20 20 20 21 20 19 21 19 18 19 19 19 18 19 20 20 19 18 18 18 17 16 16 15 15 15 15 14 15 16 16 17 20 23 28 29 29 27 26 26 26 25 25
19 18 18 17 17 18 19 18 18 18 18 19 19 19 19 19 18 18 17 16 16 16 15 15 15 14 14 14 13 14 14 15 16 18 20 26 29 28 28 27 26 26 26 25
13 17 16 16 16 15 17 19 20 20 20 21 21 20 19 19 18 17 17 15 15 15 15 14 14 14 14 14 14 13 14 15 16 17 20 23 27 28 28 28 27 26 26 25
14 15 15 16 15 17 17 19 19 20 20 21 21 20 20 18 17 16 17 16 15 15 15 14 14 14 13 14 14 14 14 15 16 17 19 21 25 27 27 27 27 26 26 26
14 14 13 13 13 14 15 17 19 20 19 19 19 20 20 19 17 17 17 17 15 15 15 14 14 13 13 13 13 14 14 15 15 16 17 18 20 23 24 25 26 26 26 26
Height
733 756 769 759 747 742 743 753 770 775 777 788 793 789 771 765 767 776 769 764 767 769 771 776 783 787 793 798 804 809 811 817 820 822 824 824 826 830 833 837 839 841 842 843
745 757 740 735 734 739 739 747 760 771 769 776 787 776 763 765 772 779 784 766 763 766 770 773 778 784 790 795 801 807 810 815 819 821 823 824 825 829 829 832 834 837 840 840
751 741 727 734 740 744 742 748 754 762 771 775 789 792 775 770 772 770 764 763 755 758 766 771 774 780 787 792 798 804 809 813 817 820 823 825 826 829 830 832 833 836 838 839
741 727 730 734 740 737 761 722 730 748 768 793 774 809 775 768 777 775 764 763 749 752 757 766 771 776 783 790 796 803 808 812 815 819 822 824 825 828 830 832 834 837 838 839
739 736 736 737 733 725 740 717 727 744 756 763 776 791 759 752 777 764 761 760 744 745 750 759 765 771 778 787 793 799 806 812 815 817 820 822 824 826 829 832 835 837 839 840
729 714 720 726 715 716 711 723 726 731 753 783 763 777 760 761 746 742 744 738 733 738 745 752 760 766 773 782 789 795 801 808 812 816 818 819 821 825 827 830 834 837 838 840
735 728 716 710 729 715 721 743 779 787 790 801 745 754 755 722 720 726 737 725 725 731 738 746 754 761 767 775 783 789 796 803 809 813 816 819 820 823 826 828 831 834 836 838
756 762 724 707 720 732 732 741 774 800 804 787 741 762 746 703 713 718 711 717 717 725 730 735 742 749 758 765 775 783 790 798 804 809 813 816 818 821 825 828 828 830 832 834
755 746 710 705 704 712 727 742 724 757 759 776 755 726 714 705 720 714 718 731 719 724 726 730 733 740 749 758 766 773 783 793 798 804 809 813 816 819 823 826 827 828 830 831
728 755 721 704 700 698 715 708 747 744 789 794 762 754 759 728 724 728 727 718 705 712 717 722 725 734 742 749 759 769 776 785 793 799 804 809 813 816 820 823 824 825 827 827
714 735 730 714 716 722 718 727 724 732 754 785 789 772 724 724 710 713 723 706 710 710 712 711 720 728 735 745 754 763 771 779 787 793 799 804 809 813 817 820 822 823 827 828
700 719 747 726 701 691 698 715 721 749 767 756 765 758 693 692 706 710 712 709 717 711 707 706 708 724 735 742 750 759 768 775 781 788 794 799 804 809 812 815 819 821 822 826
715 728 750 740 721 699 708 698 707 715 724 754 772 763 696 698 707 712 719 711 718 711 715 715 710 720 731 740 747 755 763 770 776 782 789 795 798 803 807 809 813 817 820 822
708 721 732 754 732 710 711 705 697 718 742 742 746 738 721 711 712 708 726 731 726 726 725 728 731 731 732 738 744 752 757 763 768 774 782 787 791 795 800 804 807 812 815 817
714 732 723 718 709 707 710 710 695 712 717 738 730 734 730 717 710 715 718 731 733 738 736 737 740 742 742 741 747 745 752 757 761 767 774 779 783 788 793 798 801 804 808 811
711 736 721 731 712 711 713 702 697 689 699 707 717 741 720 709 723 726 736 739 746 745 747 748 746 747 751 750 751 747 747 752 756 760 764 770 776 781 784 789 793 797 800 804
723 730 737 748 724 717 733 707 698 691 705 709 742 743 725 742 741 748 748 754 757 758 756 755 756 755 755 754 754 753 751 746 749 754 758 763 768 773 776 781 786 789 792 796
730 728 736 749 737 755 716 704 707 726 731 731 737 744 740 747 750 748 750 755 761 762 765 763 762 761 759 755 753 748 746 748 748 747 752 757 761 766 770 774 778 782 785 788
720 733 744 754 752 718 721 734 735 733 767 752 759 756 753 746 749 760 761 760 764 765 767 770 767 763 758 753 753 749 745 745 745 744 744 749 753 758 763 767 770 773 778 781
722 727 746 751 757 749 755 743 727 734 775 765 766 762 759 751 776 781 767 764 766 769 770 767 767 764 761 760 755 753 748 745 741 742 740 741 745 749 753 756 761 765 769 771
742 743 753 754 759 750 746 737 728 761 785 769 771 768 765 770 775 773 772 771 770 770 770 770 769 765 760 755 748 747 749 749 743 737 737 735 737 739 743 748 753 757 761 764
750 755 757 751 756 772 747 742 760 770 764 766 770 773 771 769 771 773 775 774 774 773 772 771 768 764 759 756 754 754 752 745 741 735 730 729 729 733 737 740 744 749 752 755
761 757 759 764 775 767 758 757 758 764 767 763 766 772 773 773 776 778 778 777 776 774 773 770 768 763 756 757 755 752 748 744 738 733 728 724 724 727 730 733 737 740 743 745
785 762 763 764 778 779 774 764 761 757 760 758 761 767 772 773 776 780 777 776 775 772 768 764 760 757 762 762 760 757 751 745 739 733 726 724 721 722 724 727 729 731 733 736
794 782 774 774 780 773 773 768 765 762 764 765 764 767 767 769 774 773 772 767 768 765 762 760 762 767 769 766 762 757 752 746 739 734 730 727 720 719 719 720 721 722 724 727
792 794 797 797 797 794 787 780 773 772 773 773 772 772 772 771 771 767 770 772 771 772 773 772 770 771 770 768 763 758 753 747 742 736 732 730 724 718 717 717 715 716 717 720
Wind_Speed
10 7 8 11 13 14 14 10 11 13 14 15 15 15 21 17 11 2 12 15 12 14 16 26 30 34 34 33 26 19 28 20 17 14 8 12 7 26 21 17 15 12 10 9
7 14 12 13 15 17 16 13 8 7 21 8 12 14 10 11 6 3 9 15 16 14 16 20 26 32 35 36 30 22 28 24 18 18 14 11 9 24 20 16 12 12 7 12
14 13 13 18 17 17 16 11 10 8 15 7 12 11 9 4 2 4 20 14 18 19 18 17 23 29 32 34 34 27 31 27 23 21 15 7 4 26 20 16 12 12 10 11
12 13 18 19 18 15 12 16 14 7 14 5 14 5 6 11 16 20 22 17 18 20 18 16 20 26 31 33 35 28 29 30 26 22 15 13 23 25 19 15 15 13 11 9
15 18 14 20 16 16 17 17 10 18 8 7 10 7 5 9 14 24 30 25 22 20 21 21 21 28 30 34 34 33 28 29 29 24 14 14 11 19 16 19 20 16 12 11
18 9 18 18 17 17 17 17 13 7 5 3 13 14 6 8 17 22 27 29 24 21 21 21 29 32 30 35 34 37 32 30 29 26 18 12 13 13 17 25 23 19 15 10
8 15 19 17 17 17 15 9 4 3 2 6 11 6 9 21 19 6 6 23 23 23 21 21 21 25 29 36 34 36 38 33 30 28 23 15 20 15 13 28 24 22 18 17
11 13 17 13 14 16 12 9 6 5 3 7 9 6 6 16 19 9 20 17 23 24 22 24 26 32 33 38 38 34 38 33 34 30 27 21 20 15 9 22 20 20 20 21
5 17 9 18 19 11 20 13 10 6 8 2 5 8 8 11 12 11 18 7 17 18 22 25 25 35 37 35 41 39 39 35 38 34 31 26 23 18 15 17 20 18 7 26
13 12 13 20 15 23 9 6 7 3 7 6 6 3 5 5 2 11 20 24 22 24 22 22 23 33 38 38 41 39 42 40 39 36 33 32 29 24 21 14 18 19 6 17
13 9 17 10 15 17 15 12 6 6 3 5 3 6 11 8 3 6 5 8 7 0 8 20 22 34 39 37 37 39 40 39 36 39 36 32 34 31 28 22 18 20 16 15
5 11 8 18 17 9 20 13 10 6 9 3 5 6 3 15 17 6 7 15 6 7 8 7 18 31 34 36 33 37 38 37 37 38 34 36 34 34 33 31 25 23 21 17
7 3 5 9 9 13 9 18 11 6 7 9 3 4 3 11 12 15 12 16 9 17 19 16 5 21 28 32 32 33 37 38 38 36 35 34 35 35 35 37 34 26 24 24
4 3 1 5 7 4 3 12 20 9 8 9 8 5 6 8 14 23 13 4 15 16 17 16 17 5 20 28 31 34 32 40 39 39 37 34 35 36 37 36 37 37 30 29
4 3 6 9 14 15 16 17 20 13 8 8 7 4 7 4 17 14 17 16 16 15 17 15 15 13 21 15 27 31 33 34 39 38 37 37 37 37 37 37 36 37 38 32
3 3 5 9 13 14 15 18 15 22 9 6 6 11 4 22 23 24 17 18 15 15 15 14 14 13 18 21 23 17 33 31 38 38 39 38 35 37 39 40 39 37 37 38
3 1 1 7 7 10 11 8 9 5 15 5 11 5 10 18 19 15 16 15 15 14 15 14 13 12 17 20 20 18 10 34 34 37 36 36 38 37 40 41 39 39 39 39
6 2 2 3 5 4 4 23 23 27 23 18 18 12 17 18 17 18 16 15 13 13 12 12 15 19 20 21 25 24 22 17 25 33 35 36 36 37 36 36 37 39 36 37
4 3 2 2 3 7 12 12 13 8 13 15 11 11 8 16 19 16 13 14 11 9 9 12 17 18 21 22 23 24 25 23 17 27 33 35 37 36 35 34 36 38 33 34
7 2 3 3 2 1 6 12 11 7 7 12 12 9 11 4 6 3 8 10 10 12 15 18 19 17 18 20 22 19 21 24 19 20 30 37 40 38 37 38 37 35 35 34
2 3 4 4 4 4 10 12 10 5 4 5 9 9 11 10 4 4 8 8 11 14 17 18 17 18 20 24 28 23 22 23 28 22 24 35 37 39 39 36 35 34 33 32
3 2 3 3 2 1 18 7 6 3 7 8 10 8 6 9 8 8 7 7 9 12 14 16 16 19 23 25 23 20 18 28 30 25 26 30 36 37 32 36 34 32 32 32
4 4 3 5 5 5 12 13 9 5 3 9 9 8 6 7 9 7 6 6 6 8 11 14 16 19 24 26 25 23 26 29 31 29 26 22 29 34 34 30 32 30 32 30
18 14 3 6 8 10 14 6 5 6 6 6 6 7 6 6 7 7 6 5 4 8 9 14 19 22 22 25 24 23 26 29 28 27 27 23 25 25 29 32 30 31 29 28
3 6 4 8 17 5 8 10 11 10 10 8 5 7 8 8 4 6 6 8 11 14 16 16 15 14 17 22 24 25 27 29 27 24 25 24 12 17 24 28 30 30 31 33
8 8 4 3 8 6 7 14 12 8 7 9 7 3 3 6 5 8 6 9 10 9 10 8 11 12 15 19 23 28 29 28 26 22 21 23 22 12 11 16 25 29 33 31
Wind_Direction
232 223 214 236 252 253 267 280 131 126 146 117 166 184 248 264 273 69 204 182 191 176 161 160 163 161 157 158 162 180 163 165 182 185 210 177 184 142 142 136 131 112 107 85
245 228 231 246 253 265 266 259 126 131 170 102 197 226 196 234 267 301 306 196 188 176 164 165 162 155 157 164 169 174 164 166 180 186 185 176 164 152 143 134 132 132 113 94
228 237 233 240 254 262 268 261 146 157 179 63 179 281 256 196 113 290 270 236 190 178 170 172 165 159 163 167 174 178 172 173 184 193 198 223 219 144 135 138 136 137 114 103
242 242 237 238 235 252 264 266 171 170 163 191 183 267 201 180 184 201 233 247 189 181 170 172 166 165 166 170 176 181 175 176 189 194 209 219 149 149 154 155 154 162 157 136
230 237 245 245 244 230 253 268 273 164 170 165 205 243 246 207 184 216 212 229 194 182 174 173 170 169 168 170 174 180 181 187 197 200 209 213 176 157 170 162 167 162 160 161
240 236 239 249 256 251 248 264 280 180 203 262 213 207 198 190 227 195 208 198 183 177 176 173 175 171 168 172 174 179 181 192 201 205 210 225 201 176 171 169 172 173 172 177
264 242 251 250 251 263 252 247 275 329 37 237 274 281 184 193 193 192 234 187 180 177 174 171 176 175 167 172 175 177 183 189 199 207 211 216 205 209 173 170 176 178 183 185
225 251 241 232 234 241 251 225 202 189 220 247 264 249 212 193 152 194 210 219 178 175 177 177 178 179 177 172 177 178 182 186 197 206 211 211 212 222 200 194 187 195 199 193
232 236 266 230 249 236 251 257 223 228 206 243 262 272 47 141 133 122 132 200 173 163 194 185 181 178 179 172 177 178 180 186 194 202 209 211 215 210 210 204 202 203 218 211
236 266 258 245 233 252 219 229 256 254 212 231 283 42 318 45 86 174 179 197 164 180 189 191 180 179 180 176 176 179 180 185 192 196 207 208 218 213 209 213 218 221 237 199
202 201 257 279 235 225 245 243 239 179 203 196 218 269 183 187 251 307 339 117 133 211 213 197 182 181 179 178 173 177 179 183 187 192 201 204 214 219 212 216 221 231 223 208
215 204 214 245 262 230 228 235 204 184 251 256 142 275 205 133 243 38 69 105 92 58 41 72 178 175 175 179 172 178 179 182 186 192 194 202 208 217 220 217 221 221 236 221
326 289 196 268 284 265 234 227 233 191 187 230 162 261 176 134 103 65 73 53 37 61 42 24 109 167 172 177 178 176 178 184 187 188 193 199 202 209 218 220 220 221 226 235
349 297 132 209 241 248 280 234 228 212 200 211 220 181 261 138 131 120 116 136 63 50 50 44 37 31 165 172 180 184 179 184 185 188 193 197 199 204 211 220 221 221 222 228
335 306 323 296 283 299 294 297 222 219 204 177 229 107 343 162 165 106 95 76 62 55 44 35 33 30 26 162 191 188 189 181 184 187 193 199 202 204 209 214 222 224 222 227
260 271 299 297 298 301 291 270 296 213 211 204 128 58 11 88 66 63 66 73 57 41 43 36 29 24 16 19 13 198 188 186 185 190 195 199 200 202 207 211 216 221 225 224
264 237 305 263 321 286 287 257 268 224 44 60 84 73 83 73 76 73 67 54 49 43 22 20 18 10 358 1 352 355 340 197 187 192 198 198 200 203 207 212 213 217 223 226
335 51 40 281 345 242 55 35 82 69 47 63 74 52 77 81 71 55 53 62 50 42 28 7 358 352 348 350 344 342 349 340 214 194 198 200 202 206 208 208 211 219 219 223
341 351 334 161 275 254 36 9 6 103 40 45 57 37 54 99 63 35 28 58 60 44 32 17 352 345 346 355 359 350 345 335 314 212 201 201 203 206 207 208 212 217 219 221
312 354 121 347 315 305 34 6 325 147 77 40 44 35 26 129 90 57 5 36 41 31 30 16 3 357 0 358 358 349 350 331 324 266 219 213 209 206 207 212 214 217 218 223
299 354 279 270 240 82 347 337 290 66 115 67 66 52 54 76 92 94 45 43 46 39 28 13 4 3 5 360 360 357 347 340 336 325 270 225 219 213 211 213 215 217 219 223
147 234 268 306 167 4 327 41 59 143 96 90 93 49 41 90 74 61 62 39 32 33 25 13 8 9 7 3 356 348 343 336 332 327 321 242 225 224 218 214 215 216 216 222
27 338 129 54 94 125 57 87 92 65 83 91 80 72 29 74 70 58 45 24 31 34 35 20 12 7 10 1 355 342 339 338 336 333 328 261 233 226 223 217 218 217 221 220
345 344 69 94 39 30 12 75 89 69 57 39 59 72 69 53 92 77 58 55 21 20 39 36 24 16 359 353 351 344 340 345 341 334 334 325 245 235 232 230 225 223 226 227
291 328 359 82 22 39 8 358 11 29 15 11 45 73 13 34 60 81 39 33 20 17 21 33 32 12 354 352 349 345 347 351 347 341 339 327 321 259 245 241 234 231 233 230
22 15 24 46 3 335 340 340 351 359 11 331 334 28 91 88 60 50 44 18 17 11 11 17 42 20 2 0 357 359 349 350 350 346 344 335 333 323 335 282 253 244 244 243